Weather in Kosice

Slovakia     48°43′00″N   21°15′29″E
temp.,
°C
wind,
m/s
gust,
m/s
humid.,
%
clouds,
%
prec.,
mm/h
press.,
hPa
HPBL,
m
4 march, thu
thu401:00+2s12931 0.0 102426
04:00+1se119230 0.0 102222
07:00+1ese119138 0.0 102022
10:00+6sse22720 0.0 1019384
13:00+9s33621 0.0 1016589
16:00+8s2369100 0.0 1015213
19:00+6ese1181100 0.0 101422
22:00+6s1287100 0.0 101335
5 march, fri
fri501:00+4sw119399 0.0 101224
04:00+3n0194100 0.0 101222
07:00+3n5994100 0.4 1013480
10:00+3n5976100 0.3 1015962
13:00+3nne61066100 0.6 10171229
16:00+2nne71064100 0.1 10191257
19:00−1n4107087 0.1 1022789
22:00−1n4106085 0.0 1025757
6 march, sat
sat601:00−2n4106556 0.0 1027647
04:00−2nnw38660 0.0 1028586
07:00−2nnw27660 0.0 1030665
10:00+2n464631 0.1 10311672
13:00+3nnw453865 0.1 10311948
16:00+2n3444100 0.0 10301660
19:00−1nne116080 0.0 103121
22:00−2ene006231 0.0 103221
7 march, sun
sun701:00−2s226615 0.0 103158
04:00−3ssw23760 0.0 1029106
07:00−3ssw24720 0.0 1028240
10:00+2sw46420 0.0 1026848
13:00+4sw57390 0.0 1023975
16:00+4sw47470 0.0 1021574
19:00−1sw22713 0.0 102137
22:00−2s017712 0.0 102121
8 march, mon
mon801:00−2ne007911 0.0 102021
04:00−2ne117884 0.0 101921
07:00−2ne127781 0.0 102097
10:00+2ene125693 0.0 1020742
13:00+4nne235197 0.0 10201308
16:00+3nne346298 0.0 10191034
19:00−1n348587 0.0 102181
22:00−2n368237 0.0 1023230